Tracking 29892 objects as of 21-Nov-2024
HD Live streaming from Space Station
objects crossing your sky now

PEGASUS R/B

Track PEGASUS R/B now!
10-day predictions


NORAD ID: 23815
Int'l Code: 1996-014B
Perigee: 799.6 km
Apogee: 828.9 km
Inclination: 90.0 °
Period: 101.0 minutes
Semi major axis: 7185 km
RCS: 1.5519 m2 (large)
Launch date: March 9, 1996
Source: United States (US)
Launch site: AIR FORCE WESTERN TEST RANGE (AFWTR)

Note: This is a ROCKET BODY
Your satellite tracking list
Your tracking list is empty




NASA's NSSDC Master Catalog

Two Line Element Set (TLE):
1 23815U 96014B   24325.49381781  .00000298  00000-0  12123-3 0  9997
2 23815  90.0079 338.6590 0020444 212.2237 147.7709 14.25408533491917
Source of the keplerian elements: AFSPC